Regional Weather Roundup
Issued by NWS

Home | Current Version | Previous Version | Text Only | Print | Product List | Glossary Off
Versions: 1 2 3 4 5 6 7 8 9 10 11 12 13 14 15 16 17 18 19 20 21 22 23 24 25 26 27 28 29 30 31 32 33 34 35 36 37 38 39 40 41 42 43 44 45 46 47 48 49 50

000
ASUS43 KMKX 290721
RWRWI

WISCONSIN REGIONAL WEATHER ROUNDUP
NATIONAL WEATHER SERVICE MILWAUKEE/SULLIVAN WI
100 AM CST THU JAN 29 2015

NOTE: "FAIR" INDICATES FEW OR NO CLOUDS BELOW 12,000 FEET WITH NO
SIGNIFICANT WEATHER AND/OR OBSTRUCTIONS TO VISIBILITY.

WIZ001-002-006>008-014>016-023>028-290800-
NORTHWEST WISCONSIN

CITY           SKY/WX    TMP DP  RH WIND       PRES   REMARKS
SUPERIOR ARPT  CLOUDY    30  28  90 W6        29.85S FOG     WCI  24
ASHLAND        CLOUDY    28  27  96 W6        29.84S FOG     WCI  22
HAYWARD        FOG       27  25  92 CALM      29.82S VSB 1
SIREN          CLOUDY    29  29  98 NW6       29.86R FOG     WCI  23
CUMBERLAND     CLOUDY    28  28 100 NW6       29.83S FOG     WCI  22
RICE LAKE      FOG       28  27  97 NW3       29.84F VSB 3/4
CHETEK         FOG       27  27  99 CALM      29.83F VSB 1
LADYSMITH      CLOUDY    27  24  89 NW6       29.83S FOG     WCI  21
EAU CLAIRE     CLOUDY    28  25  88 NW6       29.83R FOG     WCI  22
MENOMONIE      CLOUDY    29  28  95 NW6       29.84R FOG     WCI  23
NEW RICHMOND   CLOUDY    30  30 100 NW10      29.86R FOG     WCI  21
OSCEOLA        CLOUDY    30  30 100 NW7       29.89S FOG     WCI  23
$$

WIZ003>005-009-010-017-018-290800-
NORTH CENTRAL WISCONSIN

CITY           SKY/WX    TMP DP  RH WIND       PRES   REMARKS
MANITOWISH WTR CLOUDY    26  22  85 W5        29.77S WCI  20
ARBOR VITAE    CLOUDY    27  22  83 CALM      29.77S
WOODRUFF       CLOUDY    27  22  83 CALM      29.77S
RHINELANDER    CLOUDY    25  22  88 SW5       29.77F FOG     WCI  19
EAGLE RIVER    CLOUDY    26  21  82 CALM      29.76S
LAND O LAKES   LGT SNOW  26  23  86 SW5       29.77S WCI  21
PHILLIPS       CLOUDY    26  23  89 CALM      29.78S
TOMAHAWK       CLOUDY    25  22  89 CALM      29.78F FOG
MEDFORD        CLOUDY    25  24  96 CALM      29.78S FOG
MERRILL        CLOUDY    26  25  96 CALM      29.78F FOG
$$

WIZ029-030-035-036-043>047-290800-
CENTRAL WISCONSIN

CITY           SKY/WX    TMP DP  RH WIND       PRES   REMARKS
WAUSAU         CLOUDY    25  24  96 CALM      29.77F FOG
MOSINEE        CLOUDY    27  27 100 CALM      29.79S FOG
MARSHFIELD     CLOUDY    27  25  92 CALM      29.78F FOG
STEVENS POINT  CLOUDY    25  22  90 CALM      29.80S FOG
WAUPACA        CLOUDY    31  24  75 CALM      29.80F
WAUTOMA        CLOUDY    29  24  81 CALM      29.80S
WISC RAPIDS    CLOUDY    27  23  85 CALM      29.81R FOG
CAMP DOUGLAS   CLOUDY    28  28 100 N2        29.79S FOG
$$

WIZ011>013-019>022-031-037>040-048>050-290800-
NORTHEAST WISCONSIN

CITY           SKY/WX    TMP DP  RH WIND       PRES   REMARKS
ANTIGO         CLOUDY    24  23  96 SW3       29.76F FOG
SHAWANO        CLOUDY    32  25  74 CALM      29.80F
OCONTO         CLOUDY    31  26  83 MISG      29.81F
STURGEON BAY   CLOUDY    32  27  80 S9G16     29.82F WCI  24
GREEN BAY      CLOUDY    31  25  78 S5        29.81F WCI  26
MANITOWOC      LGT RAIN  34  29  82 S13       29.82F WCI  25
APPLETON       CLOUDY    30  23  74 S3        29.79F
CLINTONVILLE   CLOUDY    30  25  80 CALM      29.80F
OSHKOSH        MIX PCPN  31  24  75 SE3       29.79F
$$

WIZ032>034-041-042-053>061-290800-
SOUTHWEST WISCONSIN

CITY           SKY/WX    TMP DP  RH WIND       PRES   REMARKS
LA CROSSE      CLOUDY    32  28  85 N6        29.81S FOG     WCI  26
SPARTA         CLOUDY    29  29  99 N3        29.82R FOG
VIROQUA        CLOUDY    30  30 100 N3        29.76F
BOSCOBEL       CLOUDY    34  28  79 CALM      29.78R
PRAIRIE DU CHI CLOUDY    33  28  83 NW5       29.77S WCI  28
PLATTEVILLE    CLOUDY    32  30  92 N6        29.74R WCI  26
$$

WIZ056-057-062-063-064-067-068-290800-
SOUTH CENTRAL WISCONSIN

CITY           SKY/WX    TMP DP  RH WIND       PRES   REMARKS
REEDSBURG      CLOUDY    31  28  89 CALM      29.77S FOG
BARABOO/DELLS  CLOUDY    31  26  84 CALM      29.77S
LONE ROCK      CLOUDY    33  28  81 NE5       29.77S WCI  29
MINERAL POINT  CLOUDY    32  30  93 NE3       29.74S
MADISON        CLOUDY    32  26  78 CALM      29.76F
MIDDLETON      CLOUDY    33  28  84 NE3       29.76S
WATERTOWN      CLOUDY    32  27  81 CALM      29.77S
MONROE         CLOUDY    32  28  86 CALM      29.73S
JANESVILLE     PTCLDY    32  28  86 SE5       29.74F WCI  27
$$

WIZ051-052-058>065-066-070>072-290800-
SOUTHEAST WISCONSIN

CITY           SKY/WX    TMP DP  RH WIND       PRES   REMARKS
MILWAUKEE      CLOUDY    33  24  69 S8        29.78F WCI  26
WAUKESHA       CLOUDY    30  25  80 SE3       29.77F
MILWAUKEE/TIMM CLOUDY    32  23  69 SE3       29.79F
RACINE         CLOUDY    34  25  69 S12       29.80F WCI  25
BURLINGTON     CLOUDY    33  25  72 S6        29.76F WCI  27
KENOSHA        CLOUDY    35  24  64 S9        29.78F WCI  28
FOND DU LAC    CLOUDY    31  25  78 CALM      29.79F
SHEBOYGAN      FLURRIES  32  26  78 S7        29.80F WCI  26
WEST BEND      MIX PCPN  32  23  69 CALM      29.78F
JUNEAU         CLOUDY    30  26  85 CALM      29.78F
$$

LSZ147-162-290800-
LAKE SUPERIOR

STATION/POSITION TIME  TEMP    WIND        PRES    WAVE
                       AIR SEA DIR/SP/G            HT/PER
                 (UTC) (F)     (DEG/KT/KT) (MB)    (FT/S)
DEVILS ISLAND    0700   31     280/ 14/ 15 1010.7F
PORT WING        0640   31     260/  8/ 12 1010.8S
SAXON HARBOR     0600   30     220/  4/  8 1010.2F
$$

LMZ867-665-643>646-290800-
LAKE MICHIGAN

STATION/POSITION TIME  TEMP    WIND        PRES    WAVE
                       AIR SEA DIR/SP/G            HT/PER
                 (UTC) (F)     (DEG/KT/KT) (MB)    (FT/S)
NORTHPORT PIER   0612   32     150/  7/ 17 1010.8F
SISTER BAY       0613   33     150/ 13/ 16   N/A
KEWAUNEE LAKESHO 0600   33     180/ 16/ 19 1009.5F
SHEBOYGAN LAKESH 0700   34     180/ 18/ 20 1010.0F
PORT WASHINGTON  0600   35     170/ 13/ 18 1010.5
MILWAUKEE LAKESH 0700   34     160/ 10/ 11   N/A
KENOSHA   LAKESH 0700   33     170/ 12/ 14 1008.8F
$$

TC  - TEMPERATURE IN CELSIUS
VSB - VISIBILITY IN STATUTE MILES
WCI - WIND CHILL INDEX
HX  - HEAT INDEX




USA.gov is the U.S. government's official web portal to all federal, state and local government web resources and services.